DateTimeUTC,F1_A11,F1_S11,BsB_S11,BsG_S11,BsR_S11,BbsB_S11,BbsG_S11,BbsR_S11,BaB_A11,BaG_A11,BaR_A11,Tu_S11,T_S11,Uu_S11,U_S11,P_S11,T1_A11
2021-03-09T14:00:00Z,00000200,21000000,,,,,,,0000.20,0000.01,0000.12,18.2,25.3,00.6,00.4,0644.7,31.0
2021-03-09T14:01:00Z,00000200,21000000,,,,,,,0000.13,-000.16,-000.17,18.2,25.3,00.5,00.3,0644.7,31.0
2021-03-09T14:02:00Z,00000200,21000000,,,,,,,0000.14,0000.26,0000.13,18.2,25.3,00.3,00.2,0644.7,31.0
2021-03-09T14:03:00Z,00000200,61000000,,,,,,,0000.30,0000.35,-000.33,18.2,25.3,00.3,00.2,0644.7,31.0
2021-03-09T14:04:00Z,00000200,41000000,-000.27,0000.03,-000.18,0000.21,0000.08,0000.06,-000.57,-000.23,0000.20,18.3,25.1,00.4,00.3,0645.6,31.0
2021-03-09T14:05:00Z,00000200,01000000,0000.02,0000.11,-000.37,0000.10,0000.05,-000.20,0000.80,0000.29,0000.30,18.4,25.1,00.5,00.3,0645.6,31.0
2021-03-09T14:06:00Z,00000200,01000000,0000.29,0000.03,-000.11,-000.10,0000.14,-000.25,-000.16,-000.16,-000.04,18.4,25.1,00.4,00.3,0645.6,31.0
2021-03-09T14:07:00Z,00000200,01000000,-000.47,-000.13,-000.07,0000.45,0000.09,-000.12,0000.13,0000.73,0000.16,18.3,25.1,00.3,00.2,0645.6,31.0
2021-03-09T14:08:00Z,00000200,01000000,0000.56,0000.13,-000.45,-000.30,0000.00,-000.02,0000.29,-000.02,0000.06,18.3,25.1,00.3,00.2,0645.6,31.0
2021-03-09T14:09:00Z,00000200,01000000,0000.31,0000.11,-000.17,0000.18,0000.12,-000.22,0000.48,0000.20,0000.49,18.3,25.1,00.4,00.3,0645.6,31.0
2021-03-09T14:10:00Z,00000200,01000000,0000.23,0000.04,0000.13,0000.21,0000.09,-000.26,0000.38,0000.60,0000.07,18.3,25.1,00.4,00.3,0645.5,31.0
2021-03-09T14:11:00Z,00000200,01000000,-000.27,0000.17,-000.19,-000.56,-000.03,0000.02,-000.09,-000.10,0000.27,18.3,25.1,00.5,00.3,0645.5,31.0
2021-03-09T14:12:00Z,00000200,01000000,0000.85,0000.11,-000.09,0000.19,0000.03,-000.19,0000.36,0000.30,0000.18,18.3,25.1,00.5,00.3,0645.5,31.0
2021-03-09T14:13:00Z,00000200,01000000,0000.36,0000.01,-000.26,0000.23,0000.03,-000.40,0000.33,0000.07,-000.09,18.3,25.1,00.5,00.3,0645.5,31.0
2021-03-09T14:14:00Z,00000200,01000000,-000.03,-000.18,-000.08,0000.30,0000.06,-000.09,-000.11,0000.27,0000.10,18.3,25.1,00.4,00.3,0645.5,31.0
2021-03-09T14:15:00Z,00000200,01000000,-000.46,-000.13,-000.13,0000.05,0000.12,-000.10,0000.49,0000.02,0000.47,18.3,25.1,00.4,00.2,0645.5,31.0
2021-03-09T14:16:00Z,00000200,01000000,-000.48,0000.06,-000.03,-000.00,0000.09,-000.12,0000.20,0000.40,0000.13,18.3,25.0,00.4,00.3,0645.5,31.0
2021-03-09T14:17:00Z,00000200,01000000,-000.11,0000.07,-000.21,-000.19,0000.00,-000.13,0000.04,0000.08,0000.34,18.3,25.0,00.5,00.3,0645.5,31.0
2021-03-09T14:18:00Z,00000200,01000000,0000.47,0000.19,-000.03,0000.01,0000.37,0000.24,0000.41,0000.65,0000.19,18.3,25.0,00.3,00.2,0645.5,31.0
2021-03-09T14:19:00Z,00000200,01000000,-000.02,0000.26,-000.17,0000.12,-000.09,-000.34,-000.27,-000.42,-000.25,18.3,25.0,00.4,00.3,0645.5,31.0
2021-03-09T14:20:00Z,00000200,01000000,0000.33,0000.01,-000.34,0000.13,0000.18,-000.13,-000.06,-000.13,0000.12,18.3,25.1,00.3,00.2,0645.5,31.0
2021-03-09T14:21:00Z,00000200,01000000,-000.08,0000.03,-000.17,-000.29,0000.05,-000.27,0000.15,0000.10,0000.01,18.3,25.0,00.3,00.2,0645.5,31.0
2021-03-09T14:22:00Z,00000200,01000000,0000.05,0000.25,-000.05,0000.23,0000.06,-000.29,0000.09,0000.23,-000.06,18.3,25.0,00.2,00.2,0645.5,31.0
2021-03-09T14:23:00Z,00000200,01000000,0000.36,-000.03,0000.12,0000.34,-000.28,-000.23,-000.34,-000.13,-000.19,18.3,25.0,00.2,00.1,0645.5,30.9
2021-03-09T14:24:00Z,00000200,01000000,-000.38,0000.17,-000.11,-000.19,-000.09,-000.32,0000.51,-000.04,0000.55,18.3,25.0,00.2,00.1,0645.5,31.0
2021-03-09T14:25:00Z,00000200,01000000,0000.39,0000.14,-000.10,-000.15,0000.21,-000.23,-000.04,0000.33,-000.19,18.3,25.0,00.1,00.1,0645.5,31.0
2021-03-09T14:26:00Z,00000200,01000000,-000.11,-000.06,0000.18,0000.07,0000.12,-000.05,-000.13,-000.23,-000.17,18.3,25.0,00.1,00.1,0645.6,31.0
2021-03-09T14:27:00Z,00000200,01000000,-000.80,0000.24,-000.21,0000.08,0000.10,-000.40,-000.00,-000.33,-000.03,18.3,25.0,00.1,00.1,0645.6,31.0
2021-03-09T14:28:00Z,00000200,01000000,0000.36,0000.11,-000.30,0000.19,-000.15,-000.31,-000.11,0000.17,0000.08,18.3,25.0,00.0,00.0,0645.6,31.0
2021-03-09T14:29:00Z,00000200,01000000,-000.39,0000.18,-000.15,0000.55,0000.00,-000.13,0000.28,0000.12,0000.23,18.3,25.0,00.1,00.0,0645.6,31.0
2021-03-09T14:30:00Z,00000200,01000000,0000.06,-000.05,0000.03,0000.28,-000.17,-000.08,0000.22,0000.61,0000.46,18.3,25.0,00.1,00.0,0645.6,31.0
2021-03-09T14:31:00Z,00000200,01000000,0000.02,-000.08,0000.02,-000.54,0000.08,-000.21,0000.11,-000.27,-000.17,18.3,25.0,00.1,00.0,0645.6,31.0
2021-03-09T14:32:00Z,00000200,01000000,0000.22,0000.12,-000.11,0000.48,0000.15,0000.09,0000.04,0000.59,0000.02,18.3,25.0,00.0,00.0,0645.6,31.0
2021-03-09T14:33:00Z,00000200,01000000,0000.01,0000.21,-000.26,0000.06,-000.05,-000.16,-000.02,-000.38,-000.02,18.3,25.0,00.0,00.0,0645.6,31.0
2021-03-09T14:34:00Z,00000200,01000000,-000.03,0000.05,-000.20,0000.25,0000.15,-000.22,0000.55,0000.56,0000.08,18.3,25.0,00.0,00.0,0645.6,31.0
2021-03-09T14:35:00Z,00000200,01000000,0000.37,0000.31,-000.12,-000.14,0000.13,-000.41,0000.13,-000.22,0000.30,18.3,25.0,00.1,00.0,0645.6,31.0
2021-03-09T14:36:00Z,00000200,01000000,0000.20,0000.10,-000.33,-000.15,0000.25,-000.15,0000.18,0000.19,0000.11,18.3,25.0,00.0,00.0,0645.5,31.0
2021-03-09T14:37:00Z,00000200,01000000,-000.14,0000.28,-000.27,0000.53,0000.20,-000.21,-000.65,-000.07,-000.05,18.3,25.0,00.0,00.0,0645.5,31.0
2021-03-09T14:38:00Z,00000200,01000000,-000.47,0000.17,-000.05,0000.31,0000.08,-000.17,0000.39,0000.09,0000.12,18.2,24.9,00.0,00.0,0645.5,30.9
2021-03-09T14:39:00Z,00000200,01000000,0000.83,0000.29,-000.10,-000.14,0000.13,-000.09,0000.30,0000.36,0000.57,18.2,24.9,00.0,00.0,0645.5,31.0
2021-03-09T14:40:00Z,00000200,01000000,-000.18,0000.19,0000.04,-000.06,0000.02,-000.19,0000.83,0000.61,0000.09,18.2,24.9,00.1,00.1,0645.5,31.0
2021-03-09T14:41:00Z,00000200,01000000,0000.08,0000.19,-000.16,0000.45,-000.06,-000.22,0000.54,0000.94,0000.59,18.2,24.9,00.2,00.1,0645.5,31.0
2021-03-09T14:42:00Z,00000200,01000000,0000.62,0000.55,-000.13,0000.61,0000.18,-000.10,0006.38,0005.96,0004.56,18.2,24.9,00.2,00.1,0645.5,31.0
2021-03-09T14:43:00Z,00000200,01000000,0001.78,0001.87,0000.88,0000.61,0000.53,0000.09,0027.02,0024.63,0019.65,18.2,24.9,00.3,00.2,0645.5,31.0
2021-03-09T14:44:00Z,00000200,01000000,0012.80,0009.19,0005.66,0002.67,0002.16,0001.43,0152.64,0141.10,0113.77,18.2,24.9,00.2,00.2,0645.6,31.0
2021-03-09T14:45:00Z,00000200,01000000,0009.90,0007.43,0004.58,0002.33,0001.76,0001.20,0136.02,0126.60,0101.89,18.2,24.9,00.4,00.2,0645.5,31.0
2021-03-09T14:46:00Z,00000200,01000000,0003.69,0002.74,0001.27,0000.58,0000.53,0000.07,0048.45,0045.69,0036.71,18.2,24.9,00.4,00.2,0645.5,31.0
2021-03-09T14:47:00Z,00000200,01000000,0001.61,0001.12,0000.33,0000.06,0000.49,0000.04,0015.55,0014.27,0011.99,18.2,24.9,00.3,00.2,0645.5,31.0
2021-03-09T14:48:00Z,00000200,01000000,0008.64,0006.84,0004.11,0001.57,0001.60,0001.00,0103.21,0094.82,0074.92,18.2,24.9,00.2,00.1,0645.5,31.0
2021-03-09T14:49:00Z,00000200,01000000,0023.65,0017.65,0011.00,0004.87,0004.35,0003.00,0303.71,0281.85,0227.54,18.2,24.9,00.2,00.1,0645.5,31.0
2021-03-09T14:50:00Z,00000200,01000000,0022.84,0016.42,0010.20,0004.32,0004.22,0003.10,0304.17,0283.32,0228.73,18.2,24.9,00.2,00.1,0645.5,31.0
2021-03-09T14:51:00Z,00000200,01000000,0023.64,0017.13,0011.00,0005.27,0004.08,0003.08,0296.09,0275.46,0222.11,18.2,24.9,00.2,00.1,0645.5,31.0
2021-03-09T14:52:00Z,00000200,01000000,0021.68,0015.52,0009.70,0004.84,0003.64,0002.81,0271.94,0252.57,0204.75,18.2,24.9,00.1,00.1,0645.5,31.0
2021-03-09T14:53:00Z,00000200,01000000,0011.87,0009.37,0005.51,0003.38,0001.78,0001.49,0164.88,0154.10,0125.25,18.2,24.9,00.2,00.2,0645.5,31.0
2021-03-09T14:54:00Z,00000200,01000000,0007.61,0005.49,0003.34,0001.55,0001.29,0000.42,0105.09,0098.57,0079.95,18.2,24.9,00.3,00.2,0645.5,31.0
2021-03-09T14:55:00Z,00000200,01000000,0000.28,0000.65,0000.30,0000.33,0000.14,-000.03,0017.64,0016.58,0013.80,18.2,24.9,00.3,00.2,0645.5,31.0
2021-03-09T14:56:00Z,00000200,01000000,0000.46,0000.23,-000.32,-000.05,-000.06,-000.16,0005.31,0004.73,0003.79,18.2,24.9,00.4,00.2,0645.5,31.0
2021-03-09T14:57:00Z,00000200,41000000,,,,,,,0008.00,0007.77,0006.34,18.2,24.9,00.3,00.2,0645.4,31.0
2021-03-09T14:58:00Z,00000200,61000000,,,,,,,0001.62,0001.52,0000.84,18.0,25.0,00.0,00.0,0644.5,31.0
2021-03-09T14:59:00Z,00000200,21000000,,,,,,,0001.20,0000.72,0000.94,18.0,25.1,,00.0,0644.5,31.0
